Lid_Strength_Index
1 2 2 2 2 2 2 2 1 0 -0 -1 0 0 0 -0 0 5 7 3 1 -4 -3 2 3 4 5 7 6 8 13 15 14 13 12 10 10 8 7 9 8 8 8 8 8
1 2 2 2 2 2 2 2 2 1 -0 -0 -0 0 1 1 4 6 1 -3 -4 -4 3 4 7 6 7 8 7 10 13 12 11 11 11 10 10 10 10 10 10 9 9 9 7
1 1 1 2 2 2 2 2 2 1 -0 -0 -0 0 1 2 7 7 -3 -3 -4 -3 2 3 6 7 9 9 9 10 12 10 9 9 9 10 10 10 11 12 10 9 9 10 9
1 1 1 1 1 2 2 2 2 2 0 -0 0 0 0 5 11 7 -3 -3 -3 1 4 7 8 10 10 11 9 11 9 9 9 9 10 10 9 11 11 10 9 8 9 10 10
-0 0 1 1 1 2 1 2 1 1 1 -0 1 0 5 8 8 4 -2 -1 4 4 7 7 9 10 12 11 11 11 10 9 9 9 10 10 11 11 10 9 9 9 9 10 9
0 0 1 1 1 1 1 1 1 0 0 0 0 0 6 10 5 3 5 5 5 5 7 7 8 8 10 11 11 11 10 10 10 10 10 10 12 11 10 10 9 10 10 10 9
0 1 1 1 1 2 1 1 1 0 -0 -0 -1 1 6 8 5 5 5 6 6 6 6 6 7 8 9 10 9 10 12 12 11 11 12 11 12 12 10 10 10 11 11 10 10
-0 1 2 2 2 2 3 2 2 2 1 -0 -1 3 9 5 5 5 5 6 6 6 5 6 6 7 9 9 11 13 13 15 11 11 11 12 14 11 10 11 10 11 12 11 11
-0 0 2 2 3 3 3 3 2 1 2 1 5 7 9 3 6 5 5 6 6 6 6 5 7 9 10 12 15 14 16 15 13 11 11 12 13 11 10 10 11 11 12 10 10
0 1 2 3 2 3 3 2 2 1 1 1 3 9 8 8 6 6 6 5 7 7 8 8 10 12 13 14 17 15 16 15 15 13 12 13 13 11 12 11 12 12 12 11 10
1 2 2 3 2 2 4 6 7 8 5 8 7 8 7 6 6 7 6 7 8 9 12 10 12 14 13 12 12 14 15 16 14 12 13 14 14 12 12 13 12 13 12 11 10
1 2 2 3 2 2 5 7 7 6 9 6 5 6 6 7 9 9 8 9 10 12 11 13 14 11 11 12 13 14 15 15 14 12 14 14 14 13 12 12 13 12 11 11 10
2 2 3 3 3 4 6 7 3 4 10 8 7 7 8 8 10 11 9 9 11 13 12 14 12 10 11 13 13 15 15 16 15 13 14 14 15 14 12 12 11 11 11 11 11
2 2 3 3 6 6 7 4 4 6 14 12 10 9 9 9 10 7 7 9 11 13 12 13 11 11 12 13 13 16 13 13 14 15 18 15 19 16 14 13 12 13 13 12 12
2 3 3 3 7 6 5 5 5 8 20 11 10 8 9 9 9 9 8 9 12 12 12 13 13 13 13 13 12 13 12 14 14 16 17 17 18 17 15 15 14 14 13 12 12
3 3 3 4 5 5 5 6 7 14 19 12 10 10 11 10 9 8 9 8 9 11 12 12 11 12 12 11 12 12 14 14 16 17 20 18 18 18 16 14 14 13 13 12 11
3 3 3 4 6 5 5 8 14 17 12 12 12 10 11 12 11 10 11 12 13 15 16 13 13 12 11 13 12 13 17 20 20 19 19 17 18 16 14 13 12 12 12 11 11
4 3 4 4 5 5 7 11 18 14 14 11 11 12 12 11 11 11 12 13 12 13 14 16 16 13 11 13 14 15 16 20 22 21 20 17 18 15 13 12 11 10 11 11 11
4 7 6 5 4 6 10 16 16 14 11 11 11 13 13 11 12 12 13 13 12 11 14 15 15 12 12 12 13 15 17 16 18 19 19 18 16 13 12 12 12 11 11 11 11
6 7 7 3 5 8 12 14 13 11 10 11 13 12 14 13 14 13 13 11 11 11 12 13 16 13 13 13 13 15 14 17 17 20 21 19 18 16 14 13 12 12 11 12 11
6 8 6 4 6 10 14 14 11 10 9 11 12 13 13 13 13 13 13 12 10 11 11 12 14 16 14 15 15 16 16 16 16 17 20 22 18 14 13 12 12 12 11 11 11
7 11 5 6 11 13 13 11 8 10 9 9 10 11 13 13 14 14 13 12 10 10 12 12 15 17 15 14 14 15 15 15 17 18 19 19 18 12 12 11 11 11 11 11 10
8 9 5 7 14 14 11 10 9 10 10 10 11 10 10 12 14 13 12 10 10 10 12 12 16 19 17 16 15 16 14 15 16 17 18 19 17 12 13 12 11 11 11 10 10
9 11 8 8 10 12 12 11 11 9 9 9 10 10 11 12 12 12 11 10 10 10 8 10 15 17 18 17 14 15 14 14 15 18 17 16 14 11 11 12 12 11 11 10 10
8 10 8 11 10 10 11 11 11 11 9 8 10 10 11 13 13 13 11 11 10 8 11 12 16 16 15 13 13 14 14 14 15 14 16 13 14 12 12 13 12 11 10 10 10
8 9 9 10 9 9 10 11 10 9 9 10 11 9 11 12 12 13 11 11 11 12 13 13 16 15 16 13 13 15 13 13 13 12 13 13 14 12 12 12 12 11 11 11 10
7 7 8 9 10 11 11 9 9 9 9 8 9 10 11 10 9 9 9 9 10 12 13 14 15 16 17 15 15 18 15 14 13 13 13 15 14 12 13 12 12 11 11 11 10